Лаздияй

Литва     54°13′52″N   23°31′04″E
темп.,
°C
ветер,
м/с
пор.,
м/с
влажн.,
%
обл.,
%
осадки,
мм/ч
давл.,
гПа
погр.,
м
26 сентября, вс
вс2600:00+9зсз411950 0.0 1015273
03:00+8зсз37954 0.0 1017129
06:00+8зсз35945 0.0 101977
09:00+10сз268910 0.0 1021165
12:00+14с35645 0.0 1022603
15:00+16с34515 0.0 10221063
18:00+14ссв236310 0.0 102372
21:00+10св22716 0.0 102420
27 сентября, пн
пн2700:00+8всв22805 0.0 102519
03:00+7в22851 0.0 102618
06:00+6в22890 0.0 102628
09:00+8вюв24815 0.0 1027138
12:00+13вюв45622 0.0 1027673
15:00+15в45544 0.0 10261070
18:00+13в47685 0.0 1025259
21:00+9вюв36865 0.0 1026114
28 сентября, вт
вт2800:00+7вюв410940 0.0 1027247
03:00+6вюв38950 0.0 1027172
06:00+5вюв35930 0.0 102789
09:00+7вюв37840 0.0 1028200
12:00+13юв57620 0.0 1028881
15:00+15юв455525 0.0 10271380
18:00+13вюв35665 0.0 1028132
21:00+10вюв366966 0.0 102996
29 сентября, ср
ср2900:00+10вюв366728 0.0 103096
03:00+8юв35755 0.0 103080
06:00+7юв348258 0.0 103061
09:00+9вюв488265 0.0 1030268
12:00+12юв676955 0.0 1031765
15:00+14юв5766100 0.1 10301336
18:00+12юв586866 0.1 1030550
21:00+11вюв4965100 0.1 1030341
30 сентября, чт
чт3000:00+10вюв51170100 0.0 1030423
03:00+8юв4107614 0.0 1030279
06:00+7юв513805 0.0 1030380
09:00+8юв6137545 0.0 1030476
12:00+12ююв71062100 0.0 1030686
15:00+14ююв6958100 0.0 10291038
18:00+13ююв5965100 0.0 1029538
21:00+10юв4107694 0.0 1030250